This is the latest recevied weather packets stored in our database for station/object ED2YAA-10. If no packets are shown the sender has not sent any weather packets the latest 10 day(s).
| Time | Temp. | Humidity | Pressure | Rain* | Wind** | Luminosity | Snow |
|---|---|---|---|---|---|---|---|
| 1777759898 | 22.78° C | 39% | 927.4 hPa | - | - | - | - |
| 1777758998 | 23.89° C | 38% | 927.3 hPa | - | - | - | - |
| 1777758097 | 23.33° C | 39% | 927.3 hPa | - | - | - | - |
| 1777757196 | 23.33° C | 39% | 927.2 hPa | - | - | - | - |
| 1777756296 | 23.33° C | 39% | 927 hPa | - | - | - | - |
| 1777755398 | 23.89° C | 38% | 927.3 hPa | - | - | - | - |
| 1777754496 | 23.33° C | 39% | 927.1 hPa | - | - | - | - |
| 1777751793 | 23.89° C | 37% | 927.2 hPa | - | - | - | - |
| 1777749993 | 24.44° C | 38% | 926.9 hPa | - | - | - | - |
| 1777749092 | 24.44° C | 38% | 926.9 hPa | - | - | - | - |
| 1777748214 | 25° C | 38% | 927.1 hPa | - | - | - | - |
| 1777747314 | 25° C | 38% | 927.1 hPa | - | - | - | - |
| 1777746414 | 25.56° C | 37% | 927.2 hPa | - | - | - | - |
| 1777745514 | 25.56° C | 38% | 927.4 hPa | - | - | - | - |
| 1777744614 | 25.56° C | 36% | 927 hPa | - | - | - | - |
| 1777743714 | 26.11° C | 36% | 927.3 hPa | - | - | - | - |
| 1777742814 | 26.11° C | 36% | 927.6 hPa | - | - | - | - |
| 1777741914 | 26.67° C | 35% | 927.5 hPa | - | - | - | - |
| 1777741014 | 26.67° C | 36% | 927.5 hPa | - | - | - | - |
| 1777740109 | 27.22° C | 37% | 927.3 hPa | - | - | - | - |
| 1777739209 | 27.22° C | 37% | 927.5 hPa | - | - | - | - |
| 1777738309 | 27.22° C | 37% | 927.7 hPa | - | - | - | - |
| 1777737409 | 27.22° C | 37% | 927.3 hPa | - | - | - | - |
| 1777736509 | 27.22° C | 37% | 927.5 hPa | - | - | - | - |
| 1777735609 | 27.22° C | 36% | 927.7 hPa | - | - | - | - |
* Rain since midnight (hover to see other rain measurements)
** Current wind speed in m/s (hover to see current wind gust speed)